Orbital Elements at Epoch 2459000.5 (2020-May-31.0) TDB
Reference: JPL 22 (heliocentric ecliptic J2000)
Element | Value | Uncertainty (1-sigma) | Units |
e | .06600675845164546 | 4.18e-08 | |
a | 2.828818878018434 | 1.4952e-08 | au |
q | 2.642097713633616 | 1.2006e-07 | au |
i | 2.511198944754236 | 4.9639e-06 | deg |
node | 154.2758391907098 | 9.2231e-05 | deg |
peri | 168.5468098966354 | 9.8634e-05 | deg |
M | 243.0336298391543 | 3.5876e-05 | deg |
tp | 2459565.130912215604 (2021-Dec-16.63091222) | 0.00017421 | TDB |
period | 1737.825394753173 4.76 | 1.3778e-05 3.772e-08 | d yr |
n | .2071554490381536 | 1.6424e-09 | deg/d |
Q | 3.015540042403252 | 1.5939e-08 | au |
|
| | Orbit Determination Parameters
Additional Information
|